sat.trackr.live / text

‹ back to catalog

KUIPER-00500

NORAD 68882 · 2026-095U

PAYLOAD ACTIVE UNKNOWN

§ Identity

Operator
Country
US
Launch date
2026-04-28
Launch site
AFETR
Launch vehicle
Mass (kg)
RCS (m²)

External: N2YO · Heavens-Above · Gunter

§ Orbital elements

Epoch: 2026-05-25T04:00:03.998880Z

Period
94.97 min
Inclination
51.8881°
Eccentricity
0.0005030
Mean motion
15.16342436 rev/d
Perigee alt
513.4 km
Apogee alt
520.4 km
Semi-major
6,895.0 km
B*
-1.4083e-3
RAAN
354.5612°
Arg perigee
218.3177°
Mean anomaly
251.9860°
Rev number
540

§ Raw data

KUIPER-005001 68882U 26095U   26145.16671295 -.00027878  00000+0 -14083-2 0  99902 68882  51.8881 354.5612 0005030 218.3177 251.9860 15.16342436  5403

JSON: /api/v1/satellites/68882 · /tle

For live sub-satellite position, see the globe view (requires WebGL).

§ Visibility from observer

Set your observer location to see the next 7 days of passes ≥ 10°. The values pass through the URL so the page stays shareable.

No JS? Fill the form by hand. The geolocation button needs JavaScript.